RH
39 43 57 72 89 97 100 100 100 100 100 100 100 97 50 30 31 37 83 88 22 43 54 20 16 17 22 24 22 20 20 20 20 18 16 15 16 25 32 47 53 51 40 30 25 24 22
29 30 36 42 65 67 58 66 87 99 100 96 99 57 23 17 27 50 81 83 23 29 56 32 17 17 21 22 21 19 18 18 17 16 16 15 17 20 22 24 26 26 25 24 22 22 21
26 26 20 25 42 68 84 79 34 64 65 56 57 36 15 17 30 49 66 92 28 20 52 48 20 17 18 21 20 18 16 16 15 15 15 16 20 22 22 21 22 23 22 21 20 19 17
13 26 25 18 24 39 72 70 63 49 29 23 21 16 12 17 29 42 67 92 43 20 27 51 35 19 19 19 18 17 16 15 14 14 14 13 14 16 19 20 20 20 19 17 15 12 10
17 13 24 26 24 19 24 53 58 37 22 15 15 13 11 11 20 28 43 69 76 31 19 28 46 32 19 18 18 17 16 15 15 14 13 12 12 12 12 11 11 10 10 9 9 9 12
13 19 14 21 25 26 20 16 18 17 14 12 9 8 11 10 10 15 21 36 61 62 41 19 22 39 36 24 18 17 16 16 15 14 14 14 13 13 12 11 11 11 11 12 14 14 16
10 13 19 18 16 25 23 19 15 15 12 11 10 7 7 9 10 9 9 16 30 45 57 51 33 21 25 33 33 28 19 16 16 16 16 18 19 19 20 20 19 19 17 15 16 18 19
10 10 13 18 22 15 21 25 22 16 14 11 9 8 7 6 8 8 8 8 11 20 31 45 50 44 31 24 23 26 30 31 30 29 28 26 25 22 20 17 16 17 22 22 18 8 9
42 16 10 12 16 21 22 13 25 26 19 17 14 11 9 7 6 7 8 8 8 8 9 20 33 38 42 41 35 29 26 23 21 19 19 20 24 26 27 26 23 17 11 8 6 4 3
72 65 29 13 12 13 18 24 20 13 26 26 20 17 12 10 9 6 6 7 7 8 8 7 10 19 29 40 43 43 44 42 40 35 30 24 18 14 10 7 6 5 4 4 3 3 4
10 44 77 61 20 14 12 15 20 26 14 13 29 26 17 16 13 9 7 6 6 6 8 8 7 8 8 8 12 10 9 8 9 8 7 8 7 6 5 5 4 4 4 4 4 4 7
4 4 9 44 82 57 19 13 12 17 24 23 13 21 28 22 16 12 11 9 7 6 7 8 7 7 7 7 6 6 6 6 6 6 5 5 5 5 5 4 4 4 4 4 5 8 9
3 4 4 4 9 50 83 58 21 13 13 19 26 20 15 21 25 20 14 11 10 10 10 10 9 8 8 7 7 7 7 7 7 7 7 6 6 6 6 6 6 6 6 9 10 9 6
5 4 4 4 4 4 9 43 80 77 25 12 13 21 25 22 18 16 15 19 17 15 16 14 13 11 11 10 11 11 10 11 12 13 10 8 8 10 10 9 9 15 18 14 8 6 5
19 17 10 4 4 4 4 4 5 15 69 74 42 14 13 18 22 24 22 20 17 16 15 15 15 14 14 14 15 18 24 25 28 31 34 28 22 27 25 25 20 17 12 10 7 5 5
36 34 30 27 14 6 4 4 4 4 5 7 17 64 70 31 13 13 16 18 22 24 25 25 25 26 25 25 26 25 25 23 22 23 24 25 25 24 20 17 14 13 10 8 8 7 6
32 36 37 38 37 34 24 8 4 4 4 5 5 5 6 22 57 72 49 18 12 12 15 17 17 17 16 16 15 17 16 17 16 16 15 15 16 17 14 13 11 10 9 7 6 6 8
50 44 42 40 40 39 35 30 24 7 4 4 5 5 5 5 5 6 8 17 68 81 66 42 22 13 11 11 10 11 10 10 11 10 10 10 9 9 9 8 8 8 8 7 6 6 7
62 63 61 56 49 42 40 36 28 24 14 6 5 5 5 5 5 5 6 7 8 7 6 23 53 78 88 93 90 85 76 69 65 53 40 28 20 13 11 11 11 10 10 10 10 10 11
55 56 61 60 60 60 57 54 47 32 25 21 12 6 5 5 5 5 5 6 7 9 10 11 11 10 10 9 10 13 16 22 33 49 62 69 74 56 44 34 21 22 27 22 14 20 27
50 45 37 39 49 56 59 61 57 46 35 26 23 19 12 8 6 6 5 5 5 5 6 7 9 12 14 15 16 19 22 23 23 24 21 17 12 17 22 34 52 58 66 66 62 72 57
47 59 58 42 35 43 53 59 60 48 34 28 24 22 19 13 13 12 10 8 6 5 5 5 6 7 9 12 16 22 26 28 33 35 35 34 32 28 35 27 17 10 14 14 28 49 60
61 68 65 56 48 44 52 61 63 47 31 22 21 19 20 18 17 13 12 11 11 10 8 6 5 5 5 6 6 7 11 17 24 32 33 34 35 35 37 36 34 34 36 35 27 20 17
67 75 77 65 54 52 59 58 46 29 32 42 28 31 22 22 20 15 12 10 9 8 8 8 8 7 6 6 6 7 8 10 17 23 31 31 32 34 34 37 38 39 44 44 42 39 35
88 92 90 72 58 55 59 47 38 25 32 68 50 46 47 22 25 22 13 14 11 10 10 9 9 8 7 7 9 13 15 18 23 30 34 36 35 36 35 34 33 36 36 38 43 53 52
98 94 86 78 66 60 62 47 56 51 30 64 64 60 60 44 22 20 18 14 13 18 25 17 19 23 22 14 12 14 20 26 25 28 33 38 40 40 41 41 42 44 44 39 34 39 42
92 90 90 76 67 63 61 34 34 50 51 43 67 66 63 61 53 37 35 26 20 25 35 42 33 39 46 42 34 33 36 40 38 37 35 37 39 40 38 34 33 38 38 37 35 35 39
84 94 93 84 69 60 49 34 30 46 52 64 64 66 66 65 67 62 50 45 51 60 62 55 52 52 52 52 53 54 49 48 47 47 48 43 40 39 39 39 39 41 41 43 38 35 36
94 82 73 72 72 68 64 49 28 34 38 58 76 71 70 66 62 66 70 66 57 60 63 61 62 64 61 58 54 51 55 51 54 46 49 44 44 45 49 47 57 53 52 53 46 42 44
Wind_Speed
49 46 47 46 47 47 49 43 37 37 39 28 25 24 23 27 32 39 42 43 39 37 38 37 35 33 33 33 32 30 29 27 25 24 23 23 22 22 22 25 25 26 27 28 27 28 29
50 45 42 41 42 39 41 42 41 40 36 31 32 28 29 27 32 37 38 42 37 34 35 35 33 31 30 30 29 28 27 26 25 24 23 23 23 24 25 26 27 27 27 27 27 28 29
53 47 38 39 33 34 32 31 33 30 31 34 30 26 30 28 33 35 34 36 33 33 31 33 32 30 29 28 27 26 25 24 23 22 22 22 23 24 24 25 26 27 27 28 29 30 32
57 50 43 35 31 30 27 29 26 25 24 27 27 29 29 30 32 32 31 31 30 30 28 29 30 29 27 25 25 25 24 23 23 22 22 22 22 23 24 25 26 27 29 30 30 32 33
58 55 48 41 34 27 25 21 20 20 22 23 24 26 28 27 30 32 28 28 28 26 26 24 25 26 24 24 23 22 22 21 21 21 21 22 22 22 23 24 25 26 27 29 30 30 31
53 56 54 47 41 32 24 21 19 16 18 20 20 22 23 26 26 28 27 26 27 27 24 23 21 21 22 21 20 20 20 19 20 19 19 19 19 20 21 23 24 25 27 28 30 30 31
47 50 53 54 45 40 32 24 18 16 15 15 18 20 21 22 24 25 24 24 25 24 26 24 22 20 19 19 19 19 19 18 18 18 18 18 19 21 22 23 24 25 26 27 30 31 31
46 44 46 49 51 48 41 36 26 18 14 13 13 15 18 19 20 21 23 22 19 19 21 22 23 23 22 21 20 20 19 19 20 20 21 22 22 23 24 25 27 27 27 26 25 27 29
42 45 44 43 45 47 49 42 36 31 21 15 13 12 14 15 16 17 17 18 20 19 18 19 20 21 21 21 21 21 21 21 22 23 23 25 25 25 25 25 24 24 23 23 24 27 32
41 40 41 43 40 40 42 45 45 36 31 27 17 12 12 13 14 14 14 15 15 16 16 17 17 18 19 19 20 20 19 20 21 21 21 21 21 21 21 21 21 21 23 24 27 30 30
44 43 40 38 40 39 38 38 40 41 40 29 28 22 13 10 12 12 13 13 13 13 16 15 15 15 15 15 16 15 15 16 17 18 20 21 21 22 22 22 22 24 25 26 28 28 20
38 41 42 41 38 37 37 36 35 35 36 37 34 28 25 18 10 8 10 11 12 13 13 12 14 14 15 15 16 16 16 17 19 21 23 24 24 24 25 25 25 26 28 26 22 17 16
31 34 36 38 39 39 36 34 35 33 32 32 34 34 31 28 23 16 8 7 8 11 11 10 11 13 15 15 16 18 18 20 21 24 26 28 28 26 26 26 25 24 21 18 13 15 16
26 27 30 32 34 36 36 35 33 31 31 29 28 29 30 30 29 28 25 18 11 6 6 8 8 12 12 13 12 11 10 9 9 11 15 19 21 21 18 15 14 13 13 14 15 16 18
21 23 25 26 28 30 31 32 33 33 31 29 28 26 24 24 25 25 24 23 22 20 16 13 10 9 8 6 7 7 5 2 2 4 4 3 4 7 8 8 9 11 13 15 19 18 13
19 21 22 23 24 24 24 26 27 28 29 29 29 26 23 22 20 19 18 18 17 16 15 14 13 11 9 7 6 4 3 2 3 4 5 5 4 7 8 11 13 14 16 18 19 18 15
16 17 19 20 21 23 23 21 21 21 23 23 25 25 24 22 21 17 16 14 11 10 9 8 7 6 5 3 2 3 4 6 7 9 9 9 9 11 12 15 16 18 19 20 19 21 22
12 14 15 17 18 19 20 21 20 17 16 16 18 18 19 20 19 19 17 14 11 9 7 6 5 3 2 3 4 6 8 9 10 12 13 12 12 14 16 17 18 19 19 20 20 20 23
8 11 13 15 16 17 18 20 19 16 14 13 12 12 13 15 15 15 14 14 13 11 9 7 4 3 3 4 5 6 8 9 11 12 12 12 10 12 12 16 17 18 20 23 24 25 26
12 12 12 13 15 16 17 18 19 18 15 13 12 11 11 10 10 10 11 10 10 9 9 8 8 7 7 6 7 8 10 11 13 15 16 17 18 20 21 22 25 24 27 31 34 33 36
19 19 18 16 15 16 18 20 19 18 17 16 15 13 13 12 12 11 11 10 10 10 9 8 8 7 8 10 12 13 14 16 18 19 21 21 21 23 24 27 30 30 30 33 34 36 40
25 24 24 24 24 22 19 21 24 21 19 17 17 17 17 16 16 15 14 14 15 14 14 14 14 14 13 13 13 14 17 17 19 21 23 25 25 26 25 30 32 32 36 38 39 38 41
32 31 29 29 29 28 27 28 27 26 24 22 20 20 19 19 20 20 20 19 18 18 18 19 19 19 19 20 20 20 21 22 20 21 24 25 26 27 27 29 31 32 35 37 41 43 46
39 37 36 35 34 33 32 33 31 29 27 29 28 25 24 24 24 23 22 22 22 23 22 23 23 24 24 24 24 25 26 28 29 26 27 28 30 31 31 33 31 30 31 36 40 40 43
46 45 40 40 40 38 37 37 34 34 33 35 33 34 30 27 27 27 25 24 23 24 25 26 26 28 29 30 30 29 30 30 30 31 32 34 34 37 39 38 34 30 35 38 40 32 41
50 46 45 43 43 42 42 41 39 37 37 33 32 32 32 32 30 30 30 30 28 27 27 29 29 30 32 33 34 35 36 35 36 35 35 38 40 40 44 45 42 39 37 40 44 43 39
53 51 48 47 46 46 46 45 46 45 44 42 37 34 35 34 35 35 33 34 34 35 34 31 34 34 36 36 38 39 39 39 40 39 39 41 43 43 45 48 48 46 47 48 49 51 49
59 56 54 53 53 51 50 51 51 48 48 48 46 45 43 41 40 39 38 37 37 40 40 38 37 35 39 40 42 44 44 43 43 44 43 44 44 46 47 47 50 49 48 48 50 52 52
65 65 61 60 59 59 58 56 57 55 53 54 54 51 49 46 43 44 43 44 44 42 43 43 44 44 44 44 46 47 47 48 47 48 42 47 51 53 49 52 48 51 52 53 54 57 58
Wind_Direction
48 56 53 50 51 57 64 77 76 84 103 109 111 131 131 140 154 161 168 173 175 175 177 178 180 183 187 191 196 201 203 205 207 209 208 215 217 218 226 227 227 232 238 246 251 257 262
48 56 62 60 63 64 71 82 92 96 103 117 128 111 130 132 149 156 168 168 174 173 175 178 180 182 186 191 195 200 202 207 209 211 211 216 219 223 227 232 236 241 248 254 260 264 270
45 52 61 63 64 80 82 90 95 100 101 102 122 118 123 133 145 152 165 169 173 173 174 178 181 183 186 189 195 200 203 207 213 216 222 225 226 228 232 236 243 248 255 260 265 272 277
47 50 55 63 72 70 81 92 93 94 96 103 110 117 122 129 138 146 162 169 173 175 175 179 183 185 187 192 196 199 205 211 214 220 226 232 238 240 244 249 253 258 263 267 274 281 285
48 50 54 57 64 77 75 84 88 86 95 104 108 118 122 124 131 140 153 168 171 178 180 181 185 188 192 195 200 205 209 213 220 225 230 236 242 249 255 261 266 271 276 279 282 287 290
48 52 52 55 59 65 79 74 77 84 87 101 103 114 120 126 129 134 145 158 171 179 181 186 190 191 198 203 208 213 217 220 228 234 240 246 254 260 263 268 273 279 283 287 290 291 292
49 50 54 55 57 60 65 76 83 81 84 90 99 113 126 132 133 136 140 148 161 170 182 190 195 200 198 205 214 221 227 233 240 246 251 255 258 263 268 271 273 275 278 282 287 293 293
50 51 52 55 58 57 59 63 69 82 88 84 96 104 122 134 140 144 146 149 152 161 176 184 193 201 206 208 212 218 225 231 239 245 251 257 260 264 267 269 274 279 283 287 291 295 296
52 51 51 52 55 58 59 59 62 67 77 95 104 114 119 132 145 148 154 156 159 163 168 180 189 198 205 209 217 222 227 232 238 244 249 253 259 262 267 273 276 280 283 286 290 297 302
58 55 54 53 52 55 59 60 60 62 67 73 85 110 128 135 144 155 162 166 169 173 180 182 188 198 205 210 216 224 231 238 243 249 252 257 260 262 264 267 271 276 283 290 296 298 302
56 59 58 56 56 55 55 58 62 62 62 66 72 80 105 132 151 156 165 174 176 179 185 195 201 205 208 212 217 223 232 239 243 248 252 256 258 262 266 270 275 280 287 292 295 299 295
52 53 56 59 59 58 56 58 58 62 64 65 66 72 80 90 123 157 173 180 183 184 198 203 210 213 219 222 230 236 241 248 253 257 260 262 263 267 270 274 278 281 282 287 290 285 289
51 52 52 53 57 60 61 58 58 60 61 65 68 70 71 76 86 97 133 178 186 199 207 213 216 221 227 229 237 243 252 260 265 266 267 266 265 266 267 270 274 275 274 274 269 279 289
50 47 49 50 52 54 58 62 62 59 59 62 65 69 73 76 78 80 84 90 107 143 191 212 219 228 233 238 245 249 252 257 270 283 280 270 260 259 259 264 259 254 255 263 273 277 282
41 45 43 44 47 48 51 55 58 61 64 62 61 63 70 73 76 79 82 85 87 88 88 92 103 119 134 143 142 148 160 179 301 326 330 315 238 223 225 234 248 255 260 270 277 280 273
36 35 34 36 39 42 45 47 50 54 56 61 63 66 66 66 71 79 82 84 89 91 94 95 98 102 110 118 133 155 183 226 266 283 287 292 269 258 253 254 259 264 270 272 275 277 271
21 24 26 30 30 30 31 35 39 42 48 52 57 56 60 65 69 69 70 74 82 88 92 94 99 104 108 123 168 224 256 263 268 272 276 271 267 262 265 265 267 269 273 275 273 278 283
359 5 8 11 14 16 17 18 21 21 29 39 46 49 52 56 58 55 59 64 64 67 72 81 94 106 188 237 250 263 271 274 277 281 284 283 283 274 277 276 277 280 281 282 279 281 287
328 337 344 349 353 356 359 0 3 7 7 8 15 26 36 38 42 45 48 47 46 45 45 46 43 21 345 322 311 304 298 296 296 295 295 293 289 280 278 279 276 279 282 282 283 288 294
297 299 308 318 326 334 338 342 345 348 351 348 348 346 353 3 10 15 19 24 29 30 29 25 21 15 6 350 335 324 314 310 306 300 297 296 294 292 290 285 281 285 288 287 287 291 285
291 293 294 294 300 310 318 324 327 330 331 332 332 328 324 324 327 331 334 338 342 343 346 348 351 350 348 343 337 331 328 325 318 313 309 304 297 292 291 289 288 287 283 280 282 284 286
283 288 291 291 292 294 297 306 312 314 314 313 311 313 311 310 310 308 307 309 310 311 311 314 315 315 317 321 319 319 316 320 317 312 312 310 304 299 300 297 295 295 294 292 290 290 286
278 281 283 286 287 289 293 298 300 301 303 303 301 297 293 293 295 294 295 296 294 293 294 294 296 298 301 305 307 311 312 313 315 312 311 313 308 302 301 296 293 295 294 291 288 286 287
275 277 279 281 281 282 285 289 293 294 296 302 296 292 288 287 287 287 284 284 286 288 289 289 291 290 292 293 296 300 304 307 308 307 312 306 309 310 308 304 307 311 300 291 289 287 290
270 272 273 277 279 278 282 284 285 286 289 295 289 293 286 280 283 283 283 280 278 280 285 286 290 289 291 291 291 294 295 298 301 304 304 306 304 308 308 305 308 306 299 299 298 302 295
266 266 269 272 274 276 279 279 286 286 284 287 281 284 285 280 279 280 280 278 275 275 278 279 280 284 286 287 288 289 291 292 295 300 301 304 302 307 307 305 312 314 310 304 300 300 297
264 263 264 268 269 271 275 277 280 286 287 283 277 274 277 278 276 275 276 279 279 282 281 278 279 284 285 284 283 285 287 291 293 295 294 297 295 298 303 304 307 307 306 302 301 300 302
264 264 265 266 268 269 271 272 274 279 285 285 275 277 276 275 273 273 273 275 277 279 280 281 280 281 282 284 286 288 287 285 287 288 291 288 289 292 294 299 300 302 300 298 294 292 294
261 263 265 265 266 266 270 269 270 274 278 282 278 275 275 274 271 270 273 272 272 272 276 279 281 281 283 286 286 288 290 288 289 289 289 288 288 289 298 294 298 298 295 293 295 296 297